Cloud_Cover
0 0 0 0 0 0 2 0 0 0 0 0 0 0 0 0 2 2 5 5 3 5 6 65 59 100 100 100 100 100 100 100 100 100 100 100 100 100 100 100 100 100 100
2 0 0 0 0 2 0 0 0 0 0 0 0 0 0 0 0 0 0 2 4 5 22 71 98 39 100 100 100 100 100 99 100 100 100 100 100 100 100 100 100 100 100
5 10 5 6 15 5 5 5 5 4 5 0 0 0 0 0 0 1 4 5 3 4 5 5 90 15 99 100 96 100 72 100 100 100 100 100 100 100 100 100 100 100 100
5 12 59 55 94 100 90 60 44 38 5 5 4 0 0 0 0 0 0 1 5 4 4 5 5 81 20 71 100 97 98 10 100 100 100 100 100 100 100 100 100 100 100
5 27 82 91 80 13 5 5 5 4 5 4 24 5 13 4 5 4 4 5 0 3 5 0 5 5 5 7 17 100 100 100 30 100 100 100 100 100 100 100 100 100 100
40 6 5 5 5 5 4 4 2 6 68 98 69 99 87 92 28 24 49 56 28 4 0 1 1 4 5 0 5 5 15 100 100 65 100 100 100 100 100 100 100 100 100
98 30 5 5 5 4 4 9 77 36 16 6 5 8 13 16 14 17 5 3 3 7 67 5 4 0 0 3 1 2 0 10 100 100 94 100 100 100 100 100 100 100 100
18 78 80 5 5 22 79 8 5 27 15 5 5 33 81 68 90 81 96 100 35 0 5 5 63 10 0 4 0 0 0 0 1 77 100 68 98 99 100 100 100 100 100
100 97 94 26 23 6 13 12 5 5 5 5 5 5 12 5 12 48 25 97 100 82 22 5 5 12 1 0 0 1 0 0 0 0 62 100 100 85 96 100 100 100 100
100 100 96 5 5 5 5 5 5 31 44 5 51 84 5 31 8 29 5 51 96 97 74 96 96 73 3 0 0 0 0 0 0 0 0 3 94 88 8 98 100 100 100
37 16 5 1 8 30 58 74 96 71 86 77 12 5 4 5 5 93 24 5 100 100 99 100 100 84 74 11 2 0 4 4 0 0 0 0 0 3 57 98 98 100 100
14 40 97 100 100 100 100 100 100 90 47 35 75 89 100 81 69 92 46 14 39 98 100 99 100 100 98 100 83 5 2 2 5 0 0 0 0 0 3 43 100 100 100
100 100 100 100 100 100 76 87 100 99 100 52 70 78 99 79 85 100 100 100 98 72 100 100 100 100 99 100 100 94 6 2 42 5 3 0 0 0 4 1 20 58 100
100 86 6 8 5 71 99 100 97 38 84 90 64 100 75 49 77 100 100 100 100 100 100 100 99 69 100 100 100 99 62 5 11 8 5 4 0 0 0 5 5 5 54
90 61 16 6 95 100 100 89 85 64 76 94 100 100 100 100 100 100 100 100 100 100 100 76 100 100 100 100 100 84 97 94 48 5 5 5 2 0 0 4 5 5 5
92 17 95 64 100 98 81 95 100 100 100 98 100 100 100 89 100 100 100 100 100 100 94 100 82 66 99 100 100 98 100 100 92 78 51 5 5 4 1 0 2 5 5
84 26 39 68 97 84 69 95 98 83 98 99 100 100 100 100 98 100 100 100 100 100 90 98 100 100 100 100 100 100 96 100 98 18 35 100 5 3 5 4 0 0 4
96 91 97 65 100 100 100 100 100 99 100 100 100 100 100 100 100 100 100 100 100 100 100 98 98 100 100 100 100 100 100 100 100 100 63 5 46 3 0 2 5 0 0
100 100 89 36 49 70 92 94 97 100 100 100 99 93 100 100 74 100 100 100 99 100 100 92 85 97 86 100 100 100 100 96 61 100 46 5 5 34 50 0 0 0 1
100 56 16 5 16 26 43 86 65 5 6 28 92 89 100 100 100 96 99 100 100 100 100 52 12 26 50 41 5 5 50 90 54 79 49 54 5 5 3 5 1 0 0
7 5 5 8 85 96 99 6 4 5 5 5 7 32 100 100 85 81 20 94 100 100 100 100 100 100 94 100 100 100 100 100 99 99 93 45 58 92 17 4 1 0 0
5 5 43 98 100 100 95 5 2 5 5 5 39 54 54 81 96 100 98 49 89 100 100 100 100 100 100 100 100 96 83 64 89 57 5 5 52 29 12 86 100 100 9
66 96 100 100 100 100 97 6 5 5 5 5 61 100 100 100 100 100 94 100 98 89 92 98 100 100 99 90 100 99 84 100 91 100 96 38 74 99 49 16 76 100 95
100 100 98 99 93 100 100 31 5 36 95 99 100 100 100 100 100 100 100 97 100 100 100 100 98 98 100 100 100 99 100 100 100 100 100 76 36 36 87 100 51 5 96
100 100 94 75 96 99 100 93 30 100 100 100 100 100 100 97 59 19 99 99 100 100 100 85 29 10 14 26 91 100 100 100 100 100 100 100 92 97 100 52 40 5 0
100 66 24 96 100 100 100 96 85 100 100 100 100 100 100 94 98 100 100 100 100 100 100 99 100 100 100 77 88 71 67 100 100 82 78 100 100 100 95 100 62 11 7